• In Deutschland
  • Länderverzeichnis
  • Für 7 Tage
  • Wassertemperatur
  • Satellitenkarten
  • Wetterkarte
  • Widgets
  • user-avatar
    Anmelden

    Stündliche Wetter Mykhailyuky

    Heute, 18 Oktober, Donnerstag

    Zeit Temperatur Niederschläge Wind Luftdruck Luftfeuchtigkeit
    00:00 +16°C° 0 mm 2 m/S 755 mmHg 55%
    01:00 +15°C° 0 mm 2 m/S 755 mmHg 57%
    02:00 +15°C° 0 mm 2 m/S 755 mmHg 59%
    03:00 +14°C° 0 mm 2 m/S 755 mmHg 64%
    04:00 +14°C° 0 mm 2 m/S 755 mmHg 67%
    05:00 +13°C° 0 mm 2 m/S 755 mmHg 69%
    06:00 +13°C° 0 mm 2 m/S 755 mmHg 71%
    07:00 +14°C° 0 mm 2 m/S 755 mmHg 68%
    08:00 +15°C° 0 mm 2 m/S 755 mmHg 65%
    09:00 +16°C° 0 mm 2 m/S 755 mmHg 60%
    10:00 +18°C° 0 mm 2 m/S 755 mmHg 54%
    11:00 +19°C° 0 mm 2 m/S 755 mmHg 48%
    12:00 +21°C° 0 mm 2 m/S 755 mmHg 43%
    13:00 +22°C° 0 mm 3 m/S 755 mmHg 40%
    14:00 +22°C° 0 mm 3 m/S 754 mmHg 37%
    15:00 +24°C° 0 mm 3 m/S 754 mmHg 34%
    16:00 +21°C° 0 mm 3 m/S 754 mmHg 38%
    17:00 +20°C° 0 mm 3 m/S 754 mmHg 41%
    18:00 +18°C° 0 mm 3 m/S 753 mmHg 45%
    19:00 +18°C° 0 mm 3 m/S 753 mmHg 47%
    20:00 +17°C° 0 mm 3 m/S 753 mmHg 50%
    21:00 +16°C° 0 mm 3 m/S 753 mmHg 52%
    22:00 +14°C° 0 mm 3 m/S 753 mmHg 54%
    23:00 +14°C° 0 mm 3 m/S 753 mmHg 57%

    Morgen, 19 Oktober, Freitag

    Zeit Temperatur Niederschläge Wind Luftdruck Luftfeuchtigkeit
    00:00 +14°C° 0 mm 2 m/S 753 mmHg 59%
    01:00 +14°C° 0 mm 2 m/S 753 mmHg 61%
    02:00 +13°C° 0 mm 2 m/S 753 mmHg 63%
    03:00 +13°C° 0 mm 2 m/S 753 mmHg 65%
    04:00 +12°C° 0 mm 2 m/S 753 mmHg 67%
    05:00 +12°C° 0 mm 2 m/S 753 mmHg 69%
    06:00 +11°C° 0 mm 3 m/S 752 mmHg 71%
    07:00 +12°C° 0 mm 3 m/S 752 mmHg 67%
    08:00 +13°C° 0 mm 3 m/S 753 mmHg 63%
    09:00 +14°C° 0 mm 3 m/S 753 mmHg 59%
    10:00 +17°C° 0 mm 4 m/S 752 mmHg 53%
    11:00 +19°C° 0 mm 4 m/S 752 mmHg 47%
    12:00 +20°C° 0 mm 4 m/S 752 mmHg 42%
    13:00 +21°C° 0 mm 4 m/S 751 mmHg 40%
    14:00 +21°C° 0 mm 4 m/S 751 mmHg 39%
    15:00 +22°C° 0 mm 5 m/S 751 mmHg 37%
    16:00 +20°C° 0 mm 4 m/S 750 mmHg 42%
    17:00 +19°C° 0 mm 3 m/S 750 mmHg 46%
    18:00 +17°C° 0 mm 3 m/S 750 mmHg 51%
    19:00 +17°C° 0 mm 3 m/S 750 mmHg 53%
    20:00 +16°C° 0 mm 3 m/S 750 mmHg 56%
    21:00 +14°C° 0 mm 3 m/S 750 mmHg 59%
    22:00 +14°C° 0 mm 3 m/S 749 mmHg 62%
    23:00 +13°C° 0 mm 3 m/S 749 mmHg 65%

    übermorgen, 20 Oktober, Samstag

    Zeit Temperatur Niederschläge Wind Luftdruck Luftfeuchtigkeit
    00:00 +14°C° 0 mm 2 m/S 749 mmHg 68%
    01:00 +13°C° 0 mm 2 m/S 749 mmHg 71%
    02:00 +13°C° 0 mm 2 m/S 748 mmHg 75%
    03:00 +13°C° 0 mm 2 m/S 748 mmHg 79%
    04:00 +12°C° 0 mm 2 m/S 748 mmHg 82%
    05:00 +12°C° 0 mm 2 m/S 748 mmHg 85%
    06:00 +12°C° 0 mm 1 m/S 748 mmHg 88%
    07:00 +13°C° 0 mm 2 m/S 748 mmHg 86%
    08:00 +13°C° 0 mm 2 m/S 748 mmHg 83%
    09:00 +14°C° 0 mm 2 m/S 748 mmHg 80%
    10:00 +16°C° 0 mm 2 m/S 748 mmHg 74%
    11:00 +17°C° 0 mm 2 m/S 748 mmHg 68%
    12:00 +19°C° 0 mm 2 m/S 748 mmHg 63%
    13:00 +19°C° 0 mm 2 m/S 748 mmHg 61%
    14:00 +20°C° 0 mm 2 m/S 748 mmHg 58%
    15:00 +20°C° 0 mm 2 m/S 748 mmHg 56%
    16:00 +19°C° 0 mm 2 m/S 748 mmHg 60%
    17:00 +18°C° 0 mm 2 m/S 748 mmHg 64%
    18:00 +17°C° 0 mm 2 m/S 748 mmHg 68%
    19:00 +17°C° 0 mm 2 m/S 748 mmHg 70%
    20:00 +16°C° 0 mm 2 m/S 748 mmHg 73%
    21:00 +16°C° 0 mm 2 m/S 748 mmHg 76%
    22:00 +15°C° 0 mm 2 m/S 748 mmHg 77%
    23:00 +15°C° 0 mm 2 m/S 748 mmHg 79%

    21 Oktober, Sonntag

    Zeit Temperatur Niederschläge Wind Luftdruck Luftfeuchtigkeit
    00:00 +14°C° 0 mm 2 m/S 748 mmHg 81%
    01:00 +14°C° 0 mm 2 m/S 748 mmHg 81%
    02:00 +14°C° 0 mm 2 m/S 748 mmHg 82%
    03:00 +14°C° 0 mm 2 m/S 747 mmHg 83%
    04:00 +13°C° 0 mm 2 m/S 747 mmHg 83%
    05:00 +13°C° 0 mm 2 m/S 747 mmHg 84%
    06:00 +13°C° 0 mm 2 m/S 747 mmHg 85%
    07:00 +13°C° 0 mm 2 m/S 747 mmHg 83%
    08:00 +14°C° 0 mm 2 m/S 747 mmHg 80%
    09:00 +14°C° 0 mm 2 m/S 748 mmHg 78%
    10:00 +15°C° 0 mm 2 m/S 747 mmHg 75%
    11:00 +16°C° 0 mm 3 m/S 747 mmHg 71%
    12:00 +17°C° 0 mm 3 m/S 747 mmHg 68%
    13:00 +17°C° 0 mm 3 m/S 747 mmHg 67%
    14:00 +17°C° 0 mm 3 m/S 747 mmHg 67%
    15:00 +17°C° 0 mm 3 m/S 746 mmHg 66%
    16:00 +16°C° 0 mm 3 m/S 747 mmHg 69%
    17:00 +16°C° 0 mm 3 m/S 747 mmHg 73%
    18:00 +14°C° 0 mm 3 m/S 747 mmHg 76%
    19:00 +14°C° 0 mm 3 m/S 747 mmHg 78%
    20:00 +13°C° 0 mm 3 m/S 747 mmHg 80%
    21:00 +13°C° 0 mm 3 m/S 747 mmHg 83%
    22:00 +13°C° 0 mm 3 m/S 748 mmHg 84%
    23:00 +12°C° 0 mm 3 m/S 748 mmHg 85%

    22 Oktober, Montag

    Zeit Temperatur Niederschläge Wind Luftdruck Luftfeuchtigkeit
    00:00 +13°C° 0 mm 2 m/S 748 mmHg 87%
    01:00 +13°C° 0 mm 2 m/S 748 mmHg 87%
    02:00 +13°C° 0 mm 2 m/S 748 mmHg 88%
    03:00 +12°C° 0 mm 2 m/S 748 mmHg 89%
    04:00 +12°C° 0 mm 2 m/S 748 mmHg 90%
    05:00 +12°C° 0 mm 2 m/S 748 mmHg 91%
    06:00 +10°C° 0 mm 2 m/S 749 mmHg 92%
    07:00 +12°C° 0 mm 2 m/S 749 mmHg 89%
    08:00 +13°C° 0 mm 2 m/S 749 mmHg 85%
    09:00 +14°C° 0 mm 2 m/S 749 mmHg 81%
    10:00 +15°C° 0 mm 2 m/S 749 mmHg 77%
    11:00 +17°C° 0 mm 2 m/S 749 mmHg 72%
    12:00 +18°C° 0 mm 3 m/S 750 mmHg 67%
    13:00 +18°C° 0 mm 3 m/S 749 mmHg 69%
    14:00 +17°C° 0 mm 3 m/S 749 mmHg 70%
    15:00 +17°C° 0 mm 3 m/S 749 mmHg 71%
    16:00 +16°C° 0 mm 3 m/S 749 mmHg 72%
    17:00 +16°C° 0 mm 3 m/S 749 mmHg 72%
    18:00 +14°C° 0 mm 3 m/S 749 mmHg 72%
    19:00 +14°C° 0 mm 3 m/S 749 mmHg 70%
    20:00 +14°C° 0 mm 3 m/S 749 mmHg 67%
    21:00 +14°C° 0 mm 3 m/S 749 mmHg 65%
    22:00 +14°C° 0 mm 2 m/S 749 mmHg 64%
    23:00 +14°C° 0 mm 2 m/S 749 mmHg 64%

    23 Oktober, Dienstag

    Zeit Temperatur Niederschläge Wind Luftdruck Luftfeuchtigkeit
    00:00 +14°C° 0 mm 2 m/S 749 mmHg 63%
    01:00 +14°C° 0.2 mm 2 m/S 749 mmHg 65%
    02:00 +14°C° 0.2 mm 2 m/S 748 mmHg 67%
    03:00 +13°C° 0.2 mm 2 m/S 748 mmHg 69%
    04:00 +13°C° 0.2 mm 2 m/S 748 mmHg 71%
    05:00 +13°C° 0.2 mm 2 m/S 748 mmHg 74%
    06:00 +13°C° 0.2 mm 2 m/S 747 mmHg 76%
    07:00 +13°C° 0.4 mm 2 m/S 747 mmHg 77%
    08:00 +13°C° 0.4 mm 2 m/S 747 mmHg 78%
    09:00 +12°C° 0.4 mm 3 m/S 747 mmHg 79%
    10:00 +12°C° 0.1 mm 3 m/S 747 mmHg 75%
    11:00 +12°C° 0.1 mm 3 m/S 746 mmHg 71%
    12:00 +14°C° 0.1 mm 2 m/S 746 mmHg 67%
    13:00 +14°C° 0.1 mm 2 m/S 746 mmHg 66%
    14:00 +14°C° 0.1 mm 2 m/S 745 mmHg 65%
    15:00 +14°C° 0.1 mm 2 m/S 745 mmHg 64%
    16:00 +13°C° 0 mm 2 m/S 745 mmHg 67%
    17:00 +12°C° 0 mm 2 m/S 745 mmHg 70%
    18:00 +12°C° 0 mm 2 m/S 745 mmHg 73%
    19:00 +12°C° 0 mm 2 m/S 744 mmHg 74%
    20:00 +12°C° 0 mm 2 m/S 744 mmHg 76%
    21:00 +12°C° 0 mm 2 m/S 744 mmHg 77%
    22:00 +12°C° 0.1 mm 1 m/S 744 mmHg 78%
    23:00 +12°C° 0.1 mm 1 m/S 743 mmHg 80%
    Mehr zeigen